Location: Moscow
(55.7500°N, 37.5830°E)
Time: 16:27:05
(UTC+03:00)

Tiros 1 despin weight - Pass Details

Date: 01 December 2021
Orbit: 592 x 641 km, 48.2° (Epoch: 23 January)

Event Time Altitude Azimuth Distance (km) Brightness Sun altitude
Rises 19:21:07 0° 267° (W) 2,827 ? -26.6°
Reaches altitude 10° 19:23:51 10° 250° (WSW) 1,926 ? -27.0°
Maximum altitude 19:27:04 20° 204° (SSW) 1,394 ? -27.5°
Enters shadow 19:27:19 20° 199° (SSW) 1,399 ? -27.5°
